ADC006 MPTO-SKAR

Flight info

Callsign ADC006
Flight time 1h 21m
Altitude 22000
Route OREPI ILTUR UQ122 ARMUM PEI PEI4B
Aircraft AT76/M-SKBO/2200

Departure

Time 2026-04-15 16:18
Airport Tocumen International Airport (MPTO)

Arrival

Time 2026-04-15 17:39
Airport El Eden Airport (SKAR)
Time Latitude Longitude Altitude Speed Heading
2026-04-15 15:44 9.06729 -79.38567 140 ft 0 kts 304°
2026-04-15 15:47 9.06727 -79.38564 140 ft 2 kts 304°
2026-04-15 15:47 9.06719 -79.38552 140 ft 3 kts 304°
2026-04-15 15:47 9.06708 -79.38536 140 ft 3 kts 303°
2026-04-15 15:48 9.06696 -79.38518 140 ft 3 kts 304°
2026-04-15 15:48 9.06685 -79.38501 140 ft 2 kts 305°
2026-04-15 15:49 9.06686 -79.38502 140 ft 2 kts 301°
2026-04-15 15:49 9.06668 -79.38511 140 ft 1 kts 109°
2026-04-15 15:49 9.06657 -79.38500 140 ft 5 kts 168°
2026-04-15 15:49 9.06588 -79.38522 140 ft 18 kts 201°
2026-04-15 15:50 9.06568 -79.38530 140 ft 0 kts 201°
2026-04-15 15:53 9.06567 -79.38530 140 ft 0 kts 201°
2026-04-15 15:56 9.06567 -79.38531 140 ft 0 kts 201°
2026-04-15 15:57 9.06566 -79.38531 140 ft 0 kts 201°
2026-04-15 16:01 9.06565 -79.38531 140 ft 0 kts 201°
2026-04-15 16:06 9.06564 -79.38531 140 ft 0 kts 201°
2026-04-15 16:06 9.06547 -79.38538 140 ft 7 kts 201°
2026-04-15 16:06 9.06473 -79.38576 140 ft 15 kts 208°
2026-04-15 16:07 9.06371 -79.38631 140 ft 19 kts 208°
2026-04-15 16:07 9.06242 -79.38700 140 ft 22 kts 208°
2026-04-15 16:07 9.06017 -79.38745 140 ft 13 kts 209°
2026-04-15 16:08 9.05939 -79.38785 140 ft 11 kts 206°
2026-04-15 16:08 9.05876 -79.38817 140 ft 9 kts 208°
2026-04-15 16:08 9.05821 -79.38849 140 ft 9 kts 210°
2026-04-15 16:08 9.05762 -79.38882 140 ft 11 kts 208°
2026-04-15 16:09 9.05696 -79.38919 140 ft 11 kts 208°
2026-04-15 16:09 9.05628 -79.38957 140 ft 11 kts 210°
2026-04-15 16:09 9.05561 -79.38997 140 ft 11 kts 211°
2026-04-15 16:09 9.05494 -79.39039 140 ft 11 kts 211°
2026-04-15 16:10 9.05429 -79.39078 140 ft 12 kts 211°
2026-04-15 16:10 9.05339 -79.39133 140 ft 18 kts 211°
2026-04-15 16:10 9.05223 -79.39204 140 ft 21 kts 212°
2026-04-15 16:10 9.05089 -79.39288 140 ft 24 kts 212°
2026-04-15 16:11 9.04944 -79.39379 140 ft 25 kts 212°
2026-04-15 16:11 9.04899 -79.39406 140 ft 2 kts 201°
2026-04-15 16:11 9.04877 -79.39415 140 ft 0 kts 200°
2026-04-15 16:11 9.04876 -79.39415 140 ft 0 kts 200°
2026-04-15 16:12 9.04870 -79.39417 140 ft 1 kts 182°
2026-04-15 16:12 9.04865 -79.39416 140 ft 0 kts 176°
2026-04-15 16:12 9.04863 -79.39416 140 ft 1 kts 176°
2026-04-15 16:12 9.04862 -79.39416 140 ft 0 kts 176°
2026-04-15 16:13 9.04861 -79.39416 140 ft 0 kts 176°
2026-04-15 16:13 9.04859 -79.39416 140 ft 0 kts 173°
2026-04-15 16:13 9.04852 -79.39415 140 ft 0 kts 173°
2026-04-15 16:14 9.04843 -79.39409 140 ft 3 kts 127°
2026-04-15 16:14 9.04835 -79.39392 140 ft 3 kts 109°
2026-04-15 16:14 9.04830 -79.39376 140 ft 0 kts 109°
2026-04-15 16:15 9.04830 -79.39375 140 ft 1 kts 109°
2026-04-15 16:15 9.04827 -79.39366 140 ft 2 kts 109°
2026-04-15 16:15 9.04818 -79.39341 140 ft 5 kts 109°
2026-04-15 16:16 9.04806 -79.39306 140 ft 5 kts 109°
2026-04-15 16:16 9.04793 -79.39269 140 ft 6 kts 110°
2026-04-15 16:16 9.04798 -79.39238 140 ft 4 kts 32°
2026-04-15 16:16 9.04964 -79.39144 140 ft 64 kts 29°
2026-04-15 16:17 9.05541 -79.38815 141 ft 120 kts 30°
2026-04-15 16:17 9.06356 -79.38353 141 ft 145 kts 30°
2026-04-15 16:17 9.07248 -79.37840 253 ft 147 kts 30°
2026-04-15 16:17 9.08095 -79.37272 380 ft 162 kts 43°
2026-04-15 16:18 9.08623 -79.36135 455 ft 190 kts 82°
2026-04-15 16:18 9.08383 -79.34799 811 ft 202 kts 113°
2026-04-15 16:18 9.07427 -79.33734 1116 ft 214 kts 143°
2026-04-15 16:18 9.06042 -79.33081 1450 ft 222 kts 158°
2026-04-15 16:19 9.04542 -79.32584 1764 ft 229 kts 161°
2026-04-15 16:19 9.03020 -79.32129 2071 ft 232 kts 161°
2026-04-15 16:19 9.01463 -79.31643 2378 ft 232 kts 157°
2026-04-15 16:19 8.99953 -79.31058 2664 ft 233 kts 153°
2026-04-15 16:20 8.98481 -79.30342 2972 ft 237 kts 149°
2026-04-15 16:20 8.97036 -79.29512 3277 ft 240 kts 146°
2026-04-15 16:20 8.95629 -79.28602 3603 ft 237 kts 146°
2026-04-15 16:20 8.94301 -79.27676 3895 ft 230 kts 143°
2026-04-15 16:21 8.93003 -79.26730 4170 ft 234 kts 142°
2026-04-15 16:21 8.92129 -79.26073 4377 ft 237 kts 142°
2026-04-15 16:21 8.90800 -79.25052 4684 ft 240 kts 142°
2026-04-15 16:21 8.89034 -79.23669 5087 ft 241 kts 141°
2026-04-15 16:22 8.88161 -79.22980 5285 ft 241 kts 141°
2026-04-15 16:22 8.86824 -79.21918 5590 ft 242 kts 141°
2026-04-15 16:22 8.85510 -79.20871 5887 ft 242 kts 141°
2026-04-15 16:22 8.84184 -79.19811 6188 ft 242 kts 140°
2026-04-15 16:23 8.82869 -79.18758 6489 ft 242 kts 140°
2026-04-15 16:23 8.81550 -79.17700 6788 ft 242 kts 140°
2026-04-15 16:23 8.80229 -79.16640 7088 ft 242 kts 140°
2026-04-15 16:23 8.78910 -79.15581 7388 ft 242 kts 140°
2026-04-15 16:24 8.77596 -79.14526 7688 ft 241 kts 139°
2026-04-15 16:24 8.76286 -79.13474 7988 ft 241 kts 139°
2026-04-15 16:24 8.74982 -79.12426 8287 ft 240 kts 139°
2026-04-15 16:24 8.73667 -79.11370 8589 ft 240 kts 139°
2026-04-15 16:25 8.72363 -79.10323 8888 ft 239 kts 139°
2026-04-15 16:25 8.71055 -79.09272 9190 ft 239 kts 139°
2026-04-15 16:25 8.69757 -79.08230 9490 ft 238 kts 139°
2026-04-15 16:25 8.68456 -79.07185 9791 ft 238 kts 139°
2026-04-15 16:26 8.67164 -79.06148 10091 ft 237 kts 139°
2026-04-15 16:26 8.65882 -79.05118 10389 ft 236 kts 139°
2026-04-15 16:26 8.64589 -79.04081 10688 ft 237 kts 139°
2026-04-15 16:26 8.63302 -79.03047 10987 ft 237 kts 139°
2026-04-15 16:27 8.62012 -79.02011 11284 ft 238 kts 139°
2026-04-15 16:27 8.60698 -79.00956 11587 ft 240 kts 139°
2026-04-15 16:27 8.59394 -78.99909 11885 ft 241 kts 139°
2026-04-15 16:27 8.58068 -78.98845 12188 ft 242 kts 140°
2026-04-15 16:28 8.56716 -78.97839 12485 ft 244 kts 145°
2026-04-15 16:28 8.55248 -78.96968 12787 ft 245 kts 150°
2026-04-15 16:28 8.53727 -78.96178 13088 ft 246 kts 153°
2026-04-15 16:28 8.52174 -78.95426 13389 ft 247 kts 154°
2026-04-15 16:29 8.50603 -78.94695 13690 ft 248 kts 155°
2026-04-15 16:29 8.49028 -78.93977 13991 ft 248 kts 155°
2026-04-15 16:29 8.47450 -78.93267 14291 ft 249 kts 156°
2026-04-15 16:29 8.45868 -78.92561 14591 ft 249 kts 156°
2026-04-15 16:30 8.44287 -78.91858 14889 ft 249 kts 156°
2026-04-15 16:30 8.42684 -78.91148 15192 ft 250 kts 156°
2026-04-15 16:30 8.41108 -78.90451 15489 ft 250 kts 156°
2026-04-15 16:30 8.39500 -78.89741 15791 ft 250 kts 156°
2026-04-15 16:31 8.37903 -78.89035 16091 ft 251 kts 156°
2026-04-15 16:31 8.36306 -78.88330 16390 ft 251 kts 156°
2026-04-15 16:31 8.34709 -78.87626 16689 ft 252 kts 156°
2026-04-15 16:31 8.33109 -78.86920 16988 ft 252 kts 156°
2026-04-15 16:32 8.31490 -78.86206 17290 ft 253 kts 156°
2026-04-15 16:32 8.29869 -78.85491 17592 ft 253 kts 156°
2026-04-15 16:32 8.28246 -78.84776 17893 ft 254 kts 156°
2026-04-15 16:32 8.26635 -78.84066 18191 ft 254 kts 156°
2026-04-15 16:33 8.25019 -78.83353 18490 ft 254 kts 156°
2026-04-15 16:33 8.23389 -78.82635 18791 ft 254 kts 156°
2026-04-15 16:33 8.21762 -78.81918 19091 ft 255 kts 156°
2026-04-15 16:33 8.20150 -78.81208 19388 ft 255 kts 156°
2026-04-15 16:34 8.18518 -78.80489 19689 ft 255 kts 156°
2026-04-15 16:34 8.16890 -78.79772 19989 ft 255 kts 156°
2026-04-15 16:34 8.15273 -78.79060 20286 ft 255 kts 155°
2026-04-15 16:34 8.13647 -78.78344 20586 ft 255 kts 155°
2026-04-15 16:35 8.12025 -78.77630 20884 ft 255 kts 155°
2026-04-15 16:35 8.10388 -78.76909 21185 ft 255 kts 155°
2026-04-15 16:35 8.08771 -78.76197 21483 ft 256 kts 155°
2026-04-15 16:35 8.07127 -78.75473 21784 ft 256 kts 155°
2026-04-15 16:36 8.05485 -78.74750 22085 ft 257 kts 155°
2026-04-15 16:36 8.03843 -78.74027 22386 ft 258 kts 155°
2026-04-15 16:36 8.02194 -78.73301 22687 ft 259 kts 154°
2026-04-15 16:36 8.00541 -78.72574 22987 ft 259 kts 154°
2026-04-15 16:37 7.98880 -78.71843 23289 ft 260 kts 154°
2026-04-15 16:37 7.97218 -78.71111 23590 ft 261 kts 154°
2026-04-15 16:37 7.95556 -78.70380 23817 ft 265 kts 154°
2026-04-15 16:37 7.93850 -78.69627 23902 ft 273 kts 154°
2026-04-15 16:38 7.92066 -78.68840 23917 ft 282 kts 154°
2026-04-15 16:38 7.90254 -78.68041 23916 ft 289 kts 154°
2026-04-15 16:38 7.88380 -78.67215 23914 ft 294 kts 154°
2026-04-15 16:38 7.86518 -78.66396 23912 ft 297 kts 154°
2026-04-15 16:39 7.84616 -78.65560 23911 ft 299 kts 154°
2026-04-15 16:39 7.82688 -78.64713 23910 ft 301 kts 154°
2026-04-15 16:39 7.80768 -78.63870 23909 ft 302 kts 154°
2026-04-15 16:39 7.78852 -78.63028 23909 ft 303 kts 154°
2026-04-15 16:40 7.76898 -78.62170 23909 ft 303 kts 154°
2026-04-15 16:40 7.74974 -78.61325 23909 ft 304 kts 154°
2026-04-15 16:40 7.73016 -78.60465 23909 ft 304 kts 154°
2026-04-15 16:40 7.71084 -78.59616 23911 ft 304 kts 154°
2026-04-15 16:41 7.69133 -78.58759 23912 ft 305 kts 154°
2026-04-15 16:41 7.67192 -78.57906 23913 ft 305 kts 154°
2026-04-15 16:41 7.65258 -78.57057 23913 ft 305 kts 154°
2026-04-15 16:41 7.63296 -78.56196 23912 ft 305 kts 154°
2026-04-15 16:42 7.61347 -78.55340 23910 ft 305 kts 154°
2026-04-15 16:42 7.59393 -78.54482 23909 ft 305 kts 154°
2026-04-15 16:42 7.57462 -78.53634 23909 ft 305 kts 154°
2026-04-15 16:42 7.55505 -78.52775 23909 ft 305 kts 155°
2026-04-15 16:43 7.53547 -78.51914 23915 ft 305 kts 155°
2026-04-15 16:43 7.51621 -78.51067 23935 ft 302 kts 155°
2026-04-15 16:43 7.49689 -78.50219 23943 ft 300 kts 155°
2026-04-15 16:43 7.47799 -78.49389 23944 ft 298 kts 155°
2026-04-15 16:44 7.45878 -78.48548 23940 ft 298 kts 155°
2026-04-15 16:44 7.43990 -78.47720 23937 ft 298 kts 155°
2026-04-15 16:44 7.42076 -78.46880 23937 ft 297 kts 155°
2026-04-15 16:44 7.40197 -78.46054 23938 ft 296 kts 155°
2026-04-15 16:45 7.38320 -78.45229 23939 ft 295 kts 156°
2026-04-15 16:45 7.36399 -78.44385 23934 ft 298 kts 156°
2026-04-15 16:45 7.34504 -78.43555 23942 ft 300 kts 156°
2026-04-15 16:45 7.32590 -78.42716 23946 ft 301 kts 156°
2026-04-15 16:46 7.30660 -78.41870 23947 ft 302 kts 156°
2026-04-15 16:46 7.28714 -78.41017 23946 ft 303 kts 156°
2026-04-15 16:46 7.26788 -78.40172 23944 ft 304 kts 156°
2026-04-15 16:46 7.24854 -78.39322 23944 ft 304 kts 157°
2026-04-15 16:47 7.22893 -78.38462 23943 ft 304 kts 157°
2026-04-15 16:47 7.20954 -78.37611 23942 ft 304 kts 158°
2026-04-15 16:47 7.19024 -78.36769 23943 ft 304 kts 156°
2026-04-15 16:47 7.17079 -78.35919 23945 ft 304 kts 156°
2026-04-15 16:48 7.15128 -78.35064 23946 ft 305 kts 156°
2026-04-15 16:48 7.13192 -78.34216 23947 ft 305 kts 156°
2026-04-15 16:48 7.11248 -78.33363 23947 ft 305 kts 156°
2026-04-15 16:48 7.09302 -78.32510 23946 ft 305 kts 156°
2026-04-15 16:49 7.07342 -78.31650 23945 ft 305 kts 156°
2026-04-15 16:49 7.05397 -78.30798 23945 ft 305 kts 157°
2026-04-15 16:49 7.03446 -78.29943 23945 ft 305 kts 157°
2026-04-15 16:49 7.01488 -78.29086 23946 ft 305 kts 156°
2026-04-15 16:50 6.99542 -78.28235 23947 ft 305 kts 156°
2026-04-15 16:50 6.97610 -78.27388 23948 ft 305 kts 156°
2026-04-15 16:50 6.95670 -78.26538 23949 ft 305 kts 156°
2026-04-15 16:50 6.93718 -78.25683 23949 ft 305 kts 156°
2026-04-15 16:51 6.91758 -78.24825 23948 ft 305 kts 156°
2026-04-15 16:51 6.89825 -78.23979 23948 ft 305 kts 156°
2026-04-15 16:51 6.87875 -78.23124 23948 ft 305 kts 155°
2026-04-15 16:51 6.86050 -78.22050 23947 ft 305 kts 143°
2026-04-15 16:52 6.84420 -78.20658 23949 ft 305 kts 136°
2026-04-15 16:52 6.82947 -78.19133 23949 ft 305 kts 132°
2026-04-15 16:52 6.81559 -78.17532 23948 ft 305 kts 130°
2026-04-15 16:52 6.80218 -78.15885 23948 ft 305 kts 128°
2026-04-15 16:53 6.79342 -78.14773 23948 ft 305 kts 127°
2026-04-15 16:53 6.77600 -78.12503 23947 ft 304 kts 126°
2026-04-15 16:53 6.76747 -78.11371 23947 ft 304 kts 126°
2026-04-15 16:53 6.75065 -78.09111 23946 ft 305 kts 126°
2026-04-15 16:54 6.74223 -78.07972 23947 ft 305 kts 126°
2026-04-15 16:54 6.72946 -78.06238 23947 ft 305 kts 126°
2026-04-15 16:54 6.71693 -78.04531 23947 ft 305 kts 126°
2026-04-15 16:54 6.70444 -78.02819 23947 ft 305 kts 127°
2026-04-15 16:55 6.69188 -78.01100 23947 ft 304 kts 127°
2026-04-15 16:55 6.67944 -77.99395 23947 ft 303 kts 127°
2026-04-15 16:55 6.66686 -77.97682 23942 ft 303 kts 125°
2026-04-15 16:55 6.65433 -77.95967 23942 ft 303 kts 125°
2026-04-15 16:56 6.64198 -77.94272 23942 ft 303 kts 125°
2026-04-15 16:56 6.62945 -77.92551 23946 ft 302 kts 125°
2026-04-15 16:56 6.61719 -77.90865 23946 ft 300 kts 125°
2026-04-15 16:56 6.60486 -77.89171 23944 ft 299 kts 125°
2026-04-15 16:57 6.59257 -77.87481 23943 ft 299 kts 125°
2026-04-15 16:57 6.58033 -77.85799 23944 ft 298 kts 125°
2026-04-15 16:57 6.56811 -77.84118 23944 ft 297 kts 125°
2026-04-15 16:57 6.55595 -77.82447 23944 ft 296 kts 125°
2026-04-15 16:58 6.54375 -77.80770 23940 ft 297 kts 125°
2026-04-15 16:58 6.53149 -77.79087 23938 ft 299 kts 125°
2026-04-15 16:58 6.51922 -77.77401 23940 ft 300 kts 125°
2026-04-15 16:58 6.50678 -77.75692 23940 ft 301 kts 125°
2026-04-15 16:59 6.49452 -77.74008 23938 ft 301 kts 124°
2026-04-15 16:59 6.48205 -77.72295 23936 ft 302 kts 124°
2026-04-15 16:59 6.46969 -77.70599 23935 ft 302 kts 124°
2026-04-15 16:59 6.45736 -77.68906 23936 ft 302 kts 124°
2026-04-15 17:00 6.44493 -77.67198 23936 ft 302 kts 124°
2026-04-15 17:00 6.43249 -77.65491 23936 ft 302 kts 124°
2026-04-15 17:00 6.41997 -77.63773 23936 ft 302 kts 124°
2026-04-15 17:00 6.40769 -77.62087 23937 ft 302 kts 124°
2026-04-15 17:01 6.39522 -77.60377 23937 ft 302 kts 124°
2026-04-15 17:01 6.38272 -77.58661 23937 ft 302 kts 124°
2026-04-15 17:01 6.37041 -77.56971 23936 ft 302 kts 124°
2026-04-15 17:01 6.35784 -77.55247 23934 ft 303 kts 124°
2026-04-15 17:02 6.34538 -77.53539 23932 ft 302 kts 124°
2026-04-15 17:02 6.33309 -77.51852 23932 ft 302 kts 124°
2026-04-15 17:02 6.32056 -77.50135 23930 ft 302 kts 124°
2026-04-15 17:02 6.30806 -77.48421 23928 ft 302 kts 124°
2026-04-15 17:03 6.29577 -77.46735 23927 ft 302 kts 124°
2026-04-15 17:03 6.28324 -77.45017 23927 ft 302 kts 124°
2026-04-15 17:03 6.27081 -77.43313 23928 ft 302 kts 124°
2026-04-15 17:03 6.25845 -77.41618 23928 ft 302 kts 124°
2026-04-15 17:04 6.24604 -77.39916 23928 ft 302 kts 124°
2026-04-15 17:04 6.23358 -77.38208 23928 ft 302 kts 124°
2026-04-15 17:04 6.22109 -77.36497 23928 ft 302 kts 124°
2026-04-15 17:04 6.20885 -77.34818 23929 ft 302 kts 124°
2026-04-15 17:05 6.19629 -77.33098 23926 ft 302 kts 124°
2026-04-15 17:05 6.18392 -77.31403 23923 ft 302 kts 124°
2026-04-15 17:05 6.17150 -77.29702 23920 ft 302 kts 124°
2026-04-15 17:05 6.15917 -77.28014 23919 ft 302 kts 124°
2026-04-15 17:06 6.14671 -77.26306 23917 ft 301 kts 124°
2026-04-15 17:06 6.13438 -77.24619 23912 ft 301 kts 124°
2026-04-15 17:06 6.12193 -77.22914 23909 ft 301 kts 124°
2026-04-15 17:06 6.10952 -77.21213 23910 ft 300 kts 124°
2026-04-15 17:07 6.09717 -77.19521 23911 ft 300 kts 124°
2026-04-15 17:07 6.08479 -77.17827 23911 ft 300 kts 124°
2026-04-15 17:07 6.07259 -77.16155 23911 ft 300 kts 124°
2026-04-15 17:07 6.06015 -77.14452 23911 ft 300 kts 124°
2026-04-15 17:08 6.04782 -77.12764 23912 ft 300 kts 124°
2026-04-15 17:08 6.03544 -77.11070 23913 ft 300 kts 124°
2026-04-15 17:08 6.02319 -77.09394 23911 ft 300 kts 124°
2026-04-15 17:08 6.01083 -77.07702 23909 ft 300 kts 124°
2026-04-15 17:09 5.99851 -77.06016 23909 ft 300 kts 124°
2026-04-15 17:09 5.98612 -77.04321 23908 ft 300 kts 124°
2026-04-15 17:09 5.97376 -77.02629 23908 ft 300 kts 124°
2026-04-15 17:09 5.96147 -77.00948 23908 ft 299 kts 124°
2026-04-15 17:10 5.94916 -76.99264 23908 ft 299 kts 124°
2026-04-15 17:10 5.93686 -76.97582 23908 ft 299 kts 124°
2026-04-15 17:10 5.92441 -76.95879 23908 ft 299 kts 124°
2026-04-15 17:10 5.91215 -76.94202 23908 ft 299 kts 124°
2026-04-15 17:11 5.89984 -76.92519 23908 ft 299 kts 124°
2026-04-15 17:11 5.88752 -76.90834 23908 ft 299 kts 124°
2026-04-15 17:11 5.87522 -76.89152 23908 ft 299 kts 124°
2026-04-15 17:12 5.85041 -76.85760 23908 ft 299 kts 124°
2026-04-15 17:12 5.83816 -76.84085 23908 ft 299 kts 124°
2026-04-15 17:12 5.82577 -76.82393 23908 ft 299 kts 124°
2026-04-15 17:12 5.81342 -76.80705 23908 ft 299 kts 124°
2026-04-15 17:13 5.80120 -76.79034 23908 ft 299 kts 124°
2026-04-15 17:13 5.78881 -76.77341 23908 ft 299 kts 124°
2026-04-15 17:13 5.77647 -76.75655 23908 ft 299 kts 124°
2026-04-15 17:13 5.76417 -76.73975 23908 ft 299 kts 124°
2026-04-15 17:14 5.75175 -76.72278 23908 ft 299 kts 124°
2026-04-15 17:14 5.73949 -76.70602 23908 ft 299 kts 124°
2026-04-15 17:14 5.72713 -76.68913 23908 ft 299 kts 124°
2026-04-15 17:14 5.71485 -76.67224 23908 ft 299 kts 123°
2026-04-15 17:15 5.70346 -76.65485 23909 ft 298 kts 120°
2026-04-15 17:15 5.69288 -76.63686 23909 ft 298 kts 117°
2026-04-15 17:15 5.68284 -76.61853 23909 ft 298 kts 116°
2026-04-15 17:15 5.67321 -76.60012 23909 ft 298 kts 115°
2026-04-15 17:16 5.66384 -76.58166 23908 ft 298 kts 115°
2026-04-15 17:16 5.65463 -76.56318 23908 ft 297 kts 114°
2026-04-15 17:16 5.64544 -76.54452 23908 ft 297 kts 114°
2026-04-15 17:16 5.63636 -76.52594 23908 ft 297 kts 114°
2026-04-15 17:17 5.62714 -76.50702 23908 ft 297 kts 114°
2026-04-15 17:17 5.61814 -76.48848 23908 ft 297 kts 114°
2026-04-15 17:17 5.60913 -76.46990 23908 ft 297 kts 114°
2026-04-15 17:17 5.60004 -76.45115 23908 ft 297 kts 114°
2026-04-15 17:18 5.59096 -76.43241 23908 ft 297 kts 114°
2026-04-15 17:18 5.58195 -76.41381 23908 ft 297 kts 114°
2026-04-15 17:18 5.57295 -76.39523 23908 ft 297 kts 114°
2026-04-15 17:18 5.56382 -76.37638 23908 ft 297 kts 114°
2026-04-15 17:19 5.55478 -76.35773 23908 ft 297 kts 114°
2026-04-15 17:19 5.54578 -76.33918 23908 ft 298 kts 115°
2026-04-15 17:19 5.53436 -76.32185 23908 ft 300 kts 127°
2026-04-15 17:19 5.51976 -76.30661 23910 ft 301 kts 135°
2026-04-15 17:20 5.50378 -76.29300 23910 ft 302 kts 139°
2026-04-15 17:20 5.48698 -76.28030 23910 ft 303 kts 142°
2026-04-15 17:20 5.46964 -76.26809 23909 ft 303 kts 143°
2026-04-15 17:20 5.45216 -76.25632 23909 ft 303 kts 144°
2026-04-15 17:21 5.43448 -76.24474 23909 ft 304 kts 145°
2026-04-15 17:21 5.41675 -76.23331 23908 ft 304 kts 145°
2026-04-15 17:21 5.39876 -76.22184 23908 ft 304 kts 145°
2026-04-15 17:21 5.38085 -76.21050 23908 ft 304 kts 146°
2026-04-15 17:22 5.36293 -76.19920 23908 ft 304 kts 146°
2026-04-15 17:22 5.34499 -76.18792 23908 ft 304 kts 146°
2026-04-15 17:22 5.32709 -76.17669 23908 ft 304 kts 146°
2026-04-15 17:22 5.30920 -76.16549 23908 ft 304 kts 146°
2026-04-15 17:23 5.29118 -76.15421 23805 ft 307 kts 146°
2026-04-15 17:23 5.27280 -76.14269 23451 ft 318 kts 146°
2026-04-15 17:23 5.25383 -76.13080 23043 ft 327 kts 146°
2026-04-15 17:23 5.23408 -76.11843 22618 ft 335 kts 146°
2026-04-15 17:24 5.21405 -76.10590 22091 ft 344 kts 147°
2026-04-15 17:24 5.19361 -76.09312 21485 ft 352 kts 147°
2026-04-15 17:24 5.17276 -76.08009 20866 ft 357 kts 147°
2026-04-15 17:24 5.15165 -76.06692 20240 ft 351 kts 147°
2026-04-15 17:25 5.13106 -76.05408 19608 ft 341 kts 147°
2026-04-15 17:25 5.11121 -76.04171 18983 ft 333 kts 148°
2026-04-15 17:25 5.09182 -76.02962 18358 ft 326 kts 148°
2026-04-15 17:25 5.07287 -76.01781 17737 ft 321 kts 148°
2026-04-15 17:26 5.05397 -76.00602 17109 ft 316 kts 148°
2026-04-15 17:26 5.03528 -75.99437 16480 ft 312 kts 148°
2026-04-15 17:26 5.01696 -75.98294 15855 ft 309 kts 148°
2026-04-15 17:26 4.99900 -75.97174 15233 ft 301 kts 148°
2026-04-15 17:27 4.98146 -75.96079 14606 ft 293 kts 148°
2026-04-15 17:27 4.96429 -75.95008 13977 ft 287 kts 148°
2026-04-15 17:27 4.94755 -75.93965 13352 ft 282 kts 147°
2026-04-15 17:27 4.93088 -75.92927 12721 ft 278 kts 147°
2026-04-15 17:28 4.91460 -75.91913 12097 ft 274 kts 146°
2026-04-15 17:28 4.89841 -75.90904 11468 ft 271 kts 146°
2026-04-15 17:28 4.88786 -75.90246 11054 ft 268 kts 146°
2026-04-15 17:28 4.87203 -75.89259 10425 ft 265 kts 146°
2026-04-15 17:29 4.85652 -75.88290 9800 ft 261 kts 146°
2026-04-15 17:29 4.83621 -75.87021 8972 ft 258 kts 146°
2026-04-15 17:29 4.82606 -75.86386 8555 ft 258 kts 146°
2026-04-15 17:29 4.81069 -75.85430 7923 ft 257 kts 147°
2026-04-15 17:30 4.79556 -75.84513 7303 ft 256 kts 147°
2026-04-15 17:30 4.78029 -75.83563 6668 ft 255 kts 143°
2026-04-15 17:30 4.76844 -75.82274 6087 ft 251 kts 123°
2026-04-15 17:30 4.76013 -75.80838 6060 ft 226 kts 116°
2026-04-15 17:31 4.75324 -75.79465 6000 ft 210 kts 114°
2026-04-15 17:31 4.74713 -75.78197 5986 ft 195 kts 113°
2026-04-15 17:31 4.74145 -75.77015 5983 ft 182 kts 113°
2026-04-15 17:31 4.73609 -75.75897 5982 ft 172 kts 113°
2026-04-15 17:32 4.73138 -75.74931 6134 ft 144 kts 114°
2026-04-15 17:32 4.72553 -75.74080 5849 ft 153 kts 128°
2026-04-15 17:32 4.71847 -75.73286 5981 ft 148 kts 130°
2026-04-15 17:32 4.71154 -75.72530 6005 ft 150 kts 133°
2026-04-15 17:33 4.70223 -75.72029 5955 ft 153 kts 161°
2026-04-15 17:33 4.69214 -75.71789 6092 ft 151 kts 169°
2026-04-15 17:33 4.68142 -75.71607 6038 ft 161 kts 171°
2026-04-15 17:33 4.67015 -75.71468 6010 ft 163 kts 175°
2026-04-15 17:34 4.65885 -75.71441 5998 ft 160 kts 182°
2026-04-15 17:34 4.64786 -75.71545 5993 ft 157 kts 189°
2026-04-15 17:34 4.63725 -75.71764 5995 ft 155 kts 195°
2026-04-15 17:34 4.62701 -75.72070 6000 ft 155 kts 199°
2026-04-15 17:35 4.61686 -75.72433 6000 ft 154 kts 201°
2026-04-15 17:35 4.60676 -75.72808 5999 ft 155 kts 201°
2026-04-15 17:35 4.59657 -75.73161 5999 ft 155 kts 199°
2026-04-15 17:35 4.58630 -75.73470 6000 ft 155 kts 197°
2026-04-15 17:36 4.57586 -75.73738 6000 ft 155 kts 194°
2026-04-15 17:36 4.56532 -75.73974 6000 ft 155 kts 193°
2026-04-15 17:36 4.55450 -75.74201 5899 ft 161 kts 193°
2026-04-15 17:36 4.54329 -75.74440 5696 ft 167 kts 193°
2026-04-15 17:37 4.53237 -75.74687 5618 ft 159 kts 194°
2026-04-15 17:37 4.52160 -75.74944 5405 ft 156 kts 195°
2026-04-15 17:37 4.51140 -75.75192 5228 ft 149 kts 195°
2026-04-15 17:37 4.50121 -75.75441 4946 ft 151 kts 195°
2026-04-15 17:38 4.49102 -75.75684 4648 ft 148 kts 195°
2026-04-15 17:38 4.48110 -75.75925 4443 ft 147 kts 194°
2026-04-15 17:38 4.47098 -75.76191 4240 ft 151 kts 193°
2026-04-15 17:38 4.46105 -75.76403 4043 ft 136 kts 192°
2026-04-15 17:39 4.45329 -75.76591 3996 ft 97 kts 194°
2026-04-15 17:39 4.44922 -75.76690 3995 ft 9 kts 192°
2026-04-15 17:39 4.44929 -75.76690 3995 ft 0 kts 146°
2026-04-15 17:39 4.44925 -75.76672 3995 ft 5 kts 53°
2026-04-15 17:40 4.44991 -75.76660 3995 ft 18 kts
2026-04-15 17:40 4.45146 -75.76630 3995 ft 19 kts 356°
2026-04-15 17:40 4.45261 -75.76679 3995 ft 17 kts 347°
2026-04-15 17:40 4.45306 -75.76727 3995 ft 7 kts 281°
2026-04-15 17:41 4.45307 -75.76731 3995 ft 0 kts 284°